Regional Weather Roundup
Issued by NWS

Home | Current Version | Previous Version | Graphics & Text | Print | Product List | Glossary Off
Versions: 1 2 3 4 5 6 7 8 9 10 11 12 13 14 15 16 17 18 19 20 21 22 23 24 25 26 27 28 29 30 31 32 33 34 35 36 37 38 39 40 41 42 43 44 45 46 47 48 49 50

000
ASUS43 KTOP 230359
RWRKS

WEATHER ROUNDUP FOR KANSAS
NATIONAL WEATHER SERVICE GOODLAND KS
1100 PM CDT WED MAR 22 2017

NOTE:  "FAIR" INDICATES FEW OR NO CLOUDS BELOW 12,000 FEET WITH NO
SIGNIFICANT WEATHER AND/OR OBSTRUCTIONS TO VISIBILITY.

KSZ001>006-013>018-027>032-041>047-230500-
NORTHWEST KANSAS

CITY           SKY/WX    TMP DP  RH WIND       PRES   REMARKS
GOODLAND       CLOUDY    45  35  68 SE16      29.92F
HAYS             N/A     46  36  68 SE7       30.05S
HILL CITY      CLOUDY    48  37  65 SE10      30.04R
RUSSELL        MOCLDY    47  34  60 SE6       30.04F
$$

KSZ061>065-074>080-084>089-230500-
SOUTHWEST KANSAS

CITY           SKY/WX    TMP DP  RH WIND       PRES   REMARKS
DODGE CITY     CLOUDY    45  39  79 SE10      30.02S
ELKHART          N/A     56  41  57 SE16        N/A
GARDEN CITY    CLOUDY    48  39  71 SE17      29.97F
GREAT BEND     CLOUDY    46  37  71 E7        30.05F
LIBERAL        CLOUDY    55  43  62 E13       29.99F
$$

KSZ066>073-081>083-090>101-230500-
SOUTHEAST KANSAS

CITY           SKY/WX    TMP DP  RH WIND       PRES   REMARKS
CHANUTE        CLOUDY    55  39  54 SE15      30.14F
COFFEYVILLE    CLOUDY    56  42  59 E9        30.14S
HUTCHINSON     CLOUDY    50  38  63 SE10      30.07F
MEDICINE LODGE   N/A     53  44  71 E8        30.03F
NEWTON         CLOUDY    49  35  58 SE12      30.09F
PARSONS        CLOUDY    56  40  55 SE6       30.15F
WICHITA INTL   CLOUDY    53  39  59 SE14      30.08S
WICHITA JABRA  CLOUDY    51  38  60 SE10      30.08F
WINFIELD       CLOUDY    57  43  59 E12G22    30.10S
$$

KSZ007>012-019>026-033>040-048>060-102>105-230500-
NORTHEAST KANSAS

CITY           SKY/WX    TMP DP  RH WIND       PRES   REMARKS
CONCORDIA      CLOUDY    52  29  41 SE9       30.10R
EMPORIA        CLOUDY    54  35  48 SE13      30.11F
LAWRENCE       CLOUDY    53  28  38 E15G25    30.16F
MANHATTAN      CLOUDY    55  30  38 SE8       30.12S
OLATHE IND     CLOUDY    51  27  39 E15G22    30.17F
OLATHE EXE     CLOUDY    50  27  40 SE15G23   30.17F
SALINA         PTCLDY    54  33  45 SE12      30.08F
TOPEKA BILLARD CLOUDY    53  30  41 SE15G22   30.15S
TOPEKA FORBES  CLOUDY    54  30  40 E12       30.14S
$$



USA.gov is the U.S. government's official web portal to all federal, state and local government web resources and services.